This is the latest recevied weather packets stored in our database for station/object WB3IGR. If no packets are shown the sender has not sent any weather packets the latest 10 day(s).
| Time | Temp. | Humidity | Pressure | Rain* | Wind** | Luminosity | Snow |
|---|---|---|---|---|---|---|---|
| 1777999501 | 26.67° C | 47% | 1011.5 hPa | 0 mm | - | 675 W/m² | - |
| 1777999199 | 26.11° C | 46% | 1011.3 hPa | 0 mm | - | 709 W/m² | - |
| 1777998897 | 26.11° C | 47% | 1011.6 hPa | 0 mm | - | 745 W/m² | - |
| 1777998596 | 26.11° C | 46% | 1011.7 hPa | 0 mm | - | 725 W/m² | - |
| 1777998292 | 26.11° C | 46% | 1011.7 hPa | 0 mm | - | 742 W/m² | - |
| 1777997988 | 25.56° C | 46% | 1011.6 hPa | 0 mm | - | 734 W/m² | - |
| 1777997685 | 26.11° C | 46% | 1011.5 hPa | 0 mm | - | 738 W/m² | - |
| 1777997383 | 26.11° C | 47% | 1011.5 hPa | 0 mm | - | 723 W/m² | - |
| 1777997081 | 25.56° C | 48% | 1011.7 hPa | 0 mm | - | 722 W/m² | - |
| 1777996777 | 25.56° C | 46% | 1011.5 hPa | 0 mm | - | 707 W/m² | - |
| 1777996473 | 25.56° C | 47% | 1011.6 hPa | 0 mm | - | 689 W/m² | - |
| 1777996170 | 25° C | 49% | 1011.6 hPa | 0 mm | - | 700 W/m² | - |
| 1777995866 | 25° C | 47% | 1011.7 hPa | 0 mm | - | 706 W/m² | - |
| 1777995562 | 25° C | 47% | 1011.7 hPa | 0 mm | - | 708 W/m² | - |
| 1777995260 | 25° C | 51% | 1011.8 hPa | 0 mm | - | 686 W/m² | - |
| 1777994956 | 25° C | 50% | 1011.9 hPa | 0 mm | - | 679 W/m² | - |
| 1777994654 | 25° C | 51% | 1011.8 hPa | 0 mm | - | 667 W/m² | - |
| 1777994348 | 25° C | 52% | 1011.9 hPa | 0 mm | - | 645 W/m² | - |
| 1777994045 | 24.44° C | 50% | 1011.9 hPa | 0 mm | - | 672 W/m² | - |
| 1777993741 | 24.44° C | 50% | 1011.9 hPa | 0 mm | - | 672 W/m² | - |
| 1777993439 | 24.44° C | 50% | 1011.9 hPa | 0 mm | - | 654 W/m² | - |
| 1777993133 | 24.44° C | 50% | 1012 hPa | 0 mm | - | 666 W/m² | - |
| 1777992831 | 24.44° C | 52% | 1012 hPa | 0 mm | - | 667 W/m² | - |
| 1777992528 | 23.89° C | 52% | 1012.1 hPa | 0 mm | - | 677 W/m² | - |
| 1777992227 | 23.89° C | 52% | 1012.1 hPa | 0 mm | - | 657 W/m² | - |
* Rain latest hour (hover to see other rain measurements)
** Current wind speed in m/s (hover to see current wind gust speed)